HP3ICC-24 Weather Reports


Display with metric or nautical units.
time (UTC)temp
F
wind
direction
speed
MPH
gust
MPH
rain 1hr
in
rain 24hr
in
rain mn
in
humidity
%
barometer
mb
20260503004218 63 42 3.0 5.0 0.00 0.00 0.00 82 1014.0
20260503004117 63 42 3.0 5.0 0.00 0.00 0.00 82 1014.0
20260503002217 63 42 3.0 5.0 0.00 0.00 0.00 82 1012.0
20260503002117 63 42 3.0 5.0 0.00 0.00 0.00 82 1012.0
20260503000218 64 42 3.0 5.0 0.01 0.00 0.00 82 1013.0
20260503000116 64 42 3.0 5.0 0.01 0.00 0.00 82 1013.0
20260502234216 64 42 3.0 5.0 0.03 0.00 0.00 82 1013.0
20260502234116 64 42 3.0 5.0 0.03 0.00 0.00 82 1013.0
20260502232216 64 42 3.0 5.0 0.08 0.00 0.00 82 1011.0
20260502232115 64 42 3.0 5.0 0.08 0.00 0.00 82 1011.0
20260502230215 64 42 3.0 5.0 0.11 0.00 0.00 82 1012.0
20260502230115 64 42 3.0 5.0 0.11 0.00 0.00 82 1012.0
20260502224215 64 42 3.0 5.0 0.05 0.00 0.00 82 1012.0
20260502224114 64 42 3.0 5.0 0.05 0.00 0.00 82 1012.0
20260502222214 64 42 3.0 5.0 0.00 0.00 0.00 82 1009.0
20260502222114 64 42 3.0 5.0 0.00 0.00 0.00 82 1009.0
20260502220214 64 42 3.0 5.0 0.00 0.00 0.00 82 1011.0
20260502220113 64 42 3.0 5.0 0.00 0.00 0.00 82 1011.0
20260502214213 64 42 3.0 5.0 0.00 0.00 0.00 82 1011.0
20260502214113 64 42 3.0 5.0 0.00 0.00 0.00 82 1011.0
20260502212213 64 42 3.0 5.0 0.00 0.00 0.00 82 1009.0
20260502212112 64 42 3.0 5.0 0.00 0.00 0.00 82 1009.0
20260502210212 64 42 3.0 5.0 0.00 0.00 0.00 82 1011.0
20260502210112 64 42 3.0 5.0 0.00 0.00 0.00 82 1011.0
20260502204212 65 42 3.0 5.0 0.00 0.00 0.00 82 1011.0
20260502204112 65 42 3.0 5.0 0.00 0.00 0.00 82 1011.0
20260502202211 66 42 3.0 5.0 0.00 0.00 0.00 82 1010.0
20260502202111 66 42 3.0 5.0 0.00 0.00 0.00 82 1010.0
20260502200211 66 42 3.0 5.0 0.00 0.00 0.00 82 1011.0
20260502200110 66 42 3.0 5.0 0.00 0.00 0.00 82 1011.0
20260502194210 66 42 3.0 5.0 0.00 0.00 0.00 82 1011.0
20260502194110 66 42 3.0 5.0 0.00 0.00 0.00 82 1011.0
20260502192210 66 42 3.0 5.0 0.00 0.00 0.00 82 1011.0
20260502192109 66 42 3.0 5.0 0.00 0.00 0.00 82 1011.0
20260502190209 66 42 3.0 5.0 0.01 0.00 0.00 82 1012.0
20260502190109 66 42 3.0 5.0 0.01 0.00 0.00 82 1012.0
20260502184209 66 42 3.0 5.0 0.00 0.00 0.00 82 1012.0
20260502184109 66 42 3.0 5.0 0.00 0.00 0.00 82 1012.0
20260502182208 66 42 3.0 5.0 0.01 0.00 0.00 82 1012.0
20260502182108 66 42 3.0 5.0 0.01 0.00 0.00 82 1012.0
20260502180208 65 42 3.0 5.0 0.01 0.00 0.00 84 1012.0
20260502180108 65 42 3.0 5.0 0.01 0.00 0.00 84 1012.0
20260502170206 65 59 3.0 4.0 0.02 0.00 0.00 86 1013.0
20260502170106 65 59 3.0 4.0 0.02 0.00 0.00 86 1013.0
20260502164206 65 59 3.0 4.0 0.02 0.00 0.00 85 1013.0
20260502164106 65 59 3.0 4.0 0.02 0.00 0.00 85 1013.0
20260502162206 67 67 3.0 4.0 0.02 0.00 0.00 81 1012.0
20260502162105 67 67 3.0 4.0 0.02 0.00 0.00 81 1012.0
20260502160205 66 67 3.0 4.0 0.02 0.00 0.00 81 1013.0
20260502160105 66 67 3.0 4.0 0.02 0.00 0.00 81 1013.0
20260502152204 67 53 3.0 5.0 0.00 0.00 0.00 81 1012.0
20260502152104 67 53 3.0 5.0 0.00 0.00 0.00 81 1012.0
20260502150203 66 53 3.0 5.0 0.00 0.00 0.00 81 1013.0
20260502150103 66 53 3.0 5.0 0.00 0.00 0.00 81 1013.0
20260502130201 63 9 4.0 7.0 0.00 0.00 0.00 91 1012.0
20260502122200 62 74 1.0 1.0 0.00 0.00 0.00 81 1011.0
20260502122100 62 74 1.0 1.0 0.00 0.00 0.00 81 1011.0
20260502120200 62 74 1.0 1.0 0.00 0.00 0.00 81 1012.0
20260502114200 62 74 1.0 1.0 0.00 0.00 0.00 81 1012.0
20260502114100 62 74 1.0 1.0 0.00 0.00 0.00 81 1012.0
20260502112159 62 74 1.0 1.0 0.00 0.00 0.00 81 1011.0
20260502112059 62 74 1.0 1.0 0.00 0.00 0.00 81 1011.0
20260502110159 62 74 1.0 1.0 0.00 0.00 0.00 81 1012.0
20260502110059 62 74 1.0 1.0 0.00 0.00 0.00 81 1012.0
20260502104158 62 74 1.0 1.0 0.00 0.00 0.00 81 1012.0
20260502104058 62 74 1.0 1.0 0.00 0.00 0.00 81 1012.0
20260502102158 62 74 1.0 1.0 0.00 0.00 0.00 81 1011.0
20260502102057 62 74 1.0 1.0 0.00 0.00 0.00 81 1011.0
20260502100157 62 74 1.0 1.0 0.00 0.00 0.00 81 1011.0
20260502090156 62 74 1.0 1.0 0.00 0.00 0.00 81 1011.0
20260502070153 63 74 1.0 1.0 0.00 0.00 0.00 81 1011.0
20260502070053 63 74 1.0 1.0 0.00 0.00 0.00 81 1011.0
20260502064152 63 74 1.0 1.0 0.00 0.00 0.00 81 1012.0
20260502064052 63 74 1.0 1.0 0.00 0.00 0.00 81 1012.0
20260502062152 63 74 1.0 1.0 0.00 0.00 0.00 81 1012.0
20260502062052 63 74 1.0 1.0 0.00 0.00 0.00 81 1012.0
20260502060151 63 74 1.0 1.0 0.00 0.00 0.00 81 1012.0
20260502060051 63 74 1.0 1.0 0.00 0.00 0.00 81 1012.0
20260502054151 63 74 1.0 1.0 0.00 0.00 0.00 81 1012.0
20260502054051 63 74 1.0 1.0 0.00 0.00 0.00 81 1012.0
20260502052151 63 74 1.0 1.0 0.00 0.00 0.00 81 1012.0
20260502052051 63 74 1.0 1.0 0.00 0.00 0.00 81 1012.0
20260502050150 63 74 1.0 1.0 0.00 0.00 0.00 81 1013.0
20260502050050 63 74 1.0 1.0 0.00 0.00 0.00 81 1013.0
20260502044150 63 74 1.0 1.0 0.00 0.00 0.00 81 1013.0
20260502044049 63 74 1.0 1.0 0.00 0.00 0.00 81 1013.0
20260502042149 63 74 1.0 1.0 0.00 0.00 0.00 81 1012.0
20260502042049 63 74 1.0 1.0 0.00 0.00 0.00 81 1012.0
20260502040149 63 74 1.0 1.0 0.00 0.00 0.00 81 1012.0
20260502040048 63 74 1.0 1.0 0.00 0.00 0.00 81 1012.0
20260502034148 63 74 1.0 1.0 0.00 0.00 0.00 81 1012.0
20260502034048 63 74 1.0 1.0 0.00 0.00 0.00 81 1012.0
20260502032148 64 74 1.0 1.0 0.00 0.00 0.00 81 1011.0
20260502032048 64 74 1.0 1.0 0.00 0.00 0.00 81 1011.0
20260502030147 64 74 1.0 1.0 0.00 0.00 0.00 81 1012.0
20260502030047 64 74 1.0 1.0 0.00 0.00 0.00 81 1012.0
20260502024147 64 74 1.0 1.0 0.00 0.00 0.00 81 1012.0
20260502024047 64 74 1.0 1.0 0.00 0.00 0.00 81 1012.0
20260502022146 64 74 1.0 1.0 0.00 0.00 0.00 81 1011.0
20260502022046 64 74 1.0 1.0 0.00 0.00 0.00 81 1011.0
20260502020146 64 74 1.0 1.0 0.00 0.00 0.00 81 1012.0
20260502020046 64 74 1.0 1.0 0.00 0.00 0.00 81 1012.0
20260502014145 64 74 1.0 1.0 0.00 0.00 0.00 81 1012.0
20260502014045 64 74 1.0 1.0 0.00 0.00 0.00 81 1012.0
20260502012145 64 74 1.0 1.0 0.00 0.00 0.00 81 1010.0
20260502012045 64 74 1.0 1.0 0.00 0.00 0.00 81 1010.0
20260502010145 64 74 1.0 1.0 0.00 0.00 0.00 81 1011.0
20260502010045 64 74 1.0 1.0 0.00 0.00 0.00 81 1011.0